This demonstration page uses our WeatherBlox Daily Observations layout. Learn more.

36.17497, -115.13722

Hourly Observations for February 15, 2016

Temp ( °F °C ) Dew Point ( °F °C ) Humidity (%) Winds ( mph kmh ) Pressure ( in mb ) Visibility ( mi km ) Precip ( " mm )
12:53 am 00:53 Clear 61 16.1 32 0 34 34 N 10 17 30.23 1024 10 16.0934 0 0
1:53 am 01:53 Clear 58 14.4 32 0 38 38 N 13 20 30.22 1024 10 16.0934 0 0
2:53 am 02:53 Clear 60 15.6 32 0 35 35 N 13 20 30.21 1023 10 16.0934 0 0
3:53 am 03:53 Clear 59 15 33 0.6 38 38 N 16 26 30.22 1023 10 16.0934 0 0
4:53 am 04:53 Clear 59 15 33 0.6 38 38 N 15 24 30.23 1024 10 16.0934 0 0
5:53 am 05:53 Clear 58 14.4 33 0.6 39 39 N 15 24 30.23 1024 10 16.0934 0 0
6:53 am 06:53 Sunny 58 14.4 34 1.1 41 41 N 17 28 30.23 1024 10 16.0934 0 0
7:53 am 07:53 Sunny 61 16.1 34 1.1 36 36 N 12 19 30.23 1024 10 16.0934 0 0
8:53 am 08:53 Sunny 63 17.2 35 1.7 35 35 N 14 22 30.24 1024 10 16.0934 0 0
9:53 am 09:53 Sunny 67 19.4 35 1.7 31 31 N 15 24 30.22 1023 10 16.0934 0 0
10:53 am 10:53 Sunny 70 21.1 35 1.7 28 28 N 9 15 30.21 1023 10 16.0934 0 0
11:53 am 11:53 Sunny 72 22.2 35 1.7 26 26 N 12 19 30.15 1021 10 16.0934 0 0
12:53 pm 12:53 Sunny 74 23.3 33 0.6 22 22 N 15 24 30.11 1020 10 16.0934 0 0
1:53 pm 13:53 Sunny 76 24.4 32 0 20 20 N 13 20 30.09 1019 10 16.0934 0 0
2:53 pm 14:53 Sunny 76 24.4 32 0 20 20 N 13 20 30.07 1018 10 16.0934 0 0
3:53 pm 15:53 Sunny 76 24.4 32 0 20 20 NNW 15 24 30.06 1018 10 16.0934 0 0
4:53 pm 16:53 Sunny 75 23.9 32 0 21 21 NNW 16 26 30.07 1018 10 16.0934 0 0
5:53 pm 17:53 Clear 71 21.7 33 0.6 25 25 NNE 8 13 30.1 1019 10 16.0934 0 0
6:53 pm 18:53 Clear 70 21.1 32 0 25 25 N 10 17 30.11 1020 10 16.0934 0 0
7:53 pm 19:53 Clear 67 19.4 33 0.6 28 28 N 3 6 30.11 1020 10 16.0934 0 0
8:53 pm 20:53 Clear 65 18.3 33 0.6 31 31 N 13 20 30.14 1021 10 16.0934 0 0
9:53 pm 21:53 Clear 66 18.9 33 0.6 29 29 N 14 22 30.13 1020 10 16.0934 0 0
10:53 pm 22:53 Clear 62 16.7 33 0.6 34 34 NE 6 9 30.14 1021 10 16.0934 0 0
11:53 pm 23:53 Clear 62 16.7 33 0.6 34 34 N 13 20 30.14 1021 10 16.0934 0 0

Powered by AerisWeather